Weather History for Fremont, MI

Change the Weather History Date:

Wednesday, July 17, 2013

  Actual Average (KMKG) Record (KMKG)
Temperature  
Mean Temperature 81 °F 71 °F  
Max Temperature 93 °F 81 °F 95 °F (1901)
Min Temperature 69 °F 62 °F 45 °F (1934)
Degree Days  
Heating Degree Days 0 0  
Month to date heating degree days 4  
Since 1 June heating degree days 70  
Since 1 July heating degree days 4  
Cooling Degree Days 16 7  
Month to date cooling degree days 110  
Year to date cooling degree days 244  
Since 1 June cooling degree days 215  
Growing Degree Days 31 (Base 50)    
Moisture  
Dew Point 70 °F    
Average Humidity 71    
Maximum Humidity 100    
Minimum Humidity 39    
Precipitation  
Precipitation 0.00 in 0.07 in 1.57 in (2006)
Month to date precipitation 1.22  
Year to date precipitation 16.04  
Snow  
Snow 0.00 in 0.00 in - ()
Month to date snowfall 0.0  
Since 1 June snowfall 0.0  
Since 1 July snowfall 0.0  
Snow Depth -    
Sea Level Pressure  
Sea Level Pressure 30.24 in    
Wind  
Wind Speed 3 mph (WSW)    
Max Wind Speed 14 mph    
Max Gust Speed 29 mph    
Visibility 9 miles    
Events      
T = Trace of Precipitation, MM = Missing Value Source: NWS Daily Summary

Daily Weather History Graph

Daily Weather History Graph

Search for Another Location

Airport:

Trip Planner

Search our weather history database for the weather conditions in past years. The results will help you decide how hot, cold, wet, or windy it might be!

Date:

Astronomy

Jul. 17, 2013 Rise Set
Actual Time 6:18 AM EDT 9:20 PM EDT
Civil Twilight 5:44 AM EDT 9:54 PM EDT
Nautical Twilight 5:00 AM EDT 10:38 PM EDT
Astronomical Twilight 4:08 AM EDT 11:30 PM EDT
Moon 4:06 PM EDT (7/17) 1:29 AM EDT (7/17)
Length of Visible Light 16h 10m
Length of Day
15h 01m
Waxing Gibbous, 67% of the Moon is Illuminated
Jul 17
Waxing Gibbous
Jul 22
Full
Jul 29
Last Quarter
Aug 6
New
Aug 14
First Quarter

Hourly Weather History & Observations

Time (EDT) Temp. Heat Index Dew Point Humidity Pressure Visibility Wind Dir Wind Speed Gust Speed Precip Events Conditions
12:14 AM 74.5 °F - 70.7 °F 88% 30.26 in 10.0 mi Calm Calm - N/A   Clear
12:35 AM 73.8 °F - 70.5 °F 90% 30.26 in 10.0 mi Calm Calm - N/A   Clear
12:55 AM 73.9 °F - 70.3 °F 88% 30.26 in 10.0 mi Calm Calm - N/A   Clear
1:14 AM 73.2 °F - 70.7 °F 92% 30.26 in 10.0 mi Calm Calm - N/A   Clear
1:35 AM 72.7 °F - 70.7 °F 93% 30.26 in 10.0 mi Calm Calm - N/A   Clear
1:54 AM 72.0 °F - 70.5 °F 95% 30.26 in 10.0 mi Calm Calm - N/A   Clear
2:15 AM 71.8 °F - 70.9 °F 97% 30.26 in 7.0 mi Calm Calm - N/A   Clear
2:35 AM 71.6 °F - 70.3 °F 96% 30.25 in 10.0 mi Calm Calm - N/A   Clear
2:54 AM 71.6 °F - 70.7 °F 97% 30.25 in 7.0 mi Calm Calm - N/A   Clear
3:14 AM 71.4 °F - 70.7 °F 98% 30.26 in 7.0 mi Calm Calm - N/A   Clear
3:35 AM 71.1 °F - 70.5 °F 98% 30.25 in 7.0 mi Calm Calm - N/A   Clear
3:55 AM 70.2 °F - 69.4 °F 98% 30.26 in 7.0 mi Calm Calm - N/A   Clear
4:14 AM 70.9 °F - 70.3 °F 98% 30.26 in 7.0 mi Calm Calm - N/A   Clear
4:35 AM 70.3 °F - 69.3 °F 96% 30.26 in 7.0 mi Calm Calm - N/A   Clear
4:55 AM 70.0 °F - 69.8 °F 99% 30.26 in 7.0 mi Calm Calm - N/A   Clear
5:15 AM 70.3 °F - 70.2 °F 99% 30.26 in 5.0 mi Calm Calm - N/A   Clear
5:34 AM 70.3 °F - 69.8 °F 98% 30.27 in 7.0 mi Calm Calm - N/A   Clear
5:55 AM 70.5 °F - 70.0 °F 98% 30.27 in 7.0 mi Calm Calm - N/A   Scattered Clouds
6:14 AM 69.8 °F - 69.6 °F 99% 30.27 in 3.0 mi Calm Calm - N/A   Clear
6:35 AM 69.3 °F - 69.3 °F 100% 30.28 in 4.0 mi Calm Calm - N/A   Clear
6:54 AM 70.0 °F - 70.0 °F 100% 30.28 in 3.0 mi Calm Calm - N/A   Clear
7:15 AM 71.4 °F - 71.2 °F 99% 30.28 in 5.0 mi Calm Calm - N/A   Scattered Clouds
7:35 AM 74.3 °F - 73.0 °F 96% 30.28 in 7.0 mi Calm Calm - N/A   Mostly Cloudy
7:54 AM 76.5 °F - 73.9 °F 92% 30.28 in 5.0 mi Calm Calm - N/A   Overcast
8:15 AM 77.7 °F - 74.3 °F 89% 30.29 in 10.0 mi Calm Calm - N/A   Mostly Cloudy
8:34 AM 79.5 °F - 75.0 °F 86% 30.29 in 10.0 mi WSW 3.5 mph - N/A   Scattered Clouds
8:55 AM 81.3 °F 87.2 °F 74.5 °F 80% 30.29 in 10.0 mi West 3.5 mph - N/A   Scattered Clouds
9:14 AM 83.3 °F 90.5 °F 74.5 °F 75% 30.29 in 10.0 mi West 6.9 mph - N/A   Clear
9:35 AM 84.2 °F 90.9 °F 73.6 °F 70% 30.29 in 10.0 mi WSW 8.1 mph - N/A   Clear
9:55 AM 85.3 °F 92.2 °F 73.4 °F 67% 30.29 in 10.0 mi West 4.6 mph - N/A   Clear
10:14 AM 86.7 °F 94.1 °F 73.4 °F 64% 30.28 in 10.0 mi West 6.9 mph - N/A   Clear
10:35 AM 87.4 °F 95.3 °F 73.2 °F 63% 30.28 in 10.0 mi West 6.9 mph 21.9 mph N/A   Clear
10:54 AM 88.3 °F 95.9 °F 72.9 °F 60% 30.28 in 10.0 mi WSW 8.1 mph - N/A   Clear
11:15 AM 88.7 °F 96.2 °F 72.7 °F 59% 30.28 in 10.0 mi WSW 8.1 mph - N/A   Clear
11:34 AM 89.8 °F 96.5 °F 71.8 °F 55% 30.28 in 10.0 mi WSW 4.6 mph - N/A   Clear
11:55 AM 91.0 °F 98.2 °F 71.8 °F 53% 30.27 in 10.0 mi West 6.9 mph - N/A   Scattered Clouds
12:14 PM 91.0 °F 97.1 °F 70.3 °F 51% 30.27 in 10.0 mi SW 8.1 mph 28.8 mph N/A   Scattered Clouds
12:35 PM 92.3 °F 97.6 °F 69.4 °F 47% 30.26 in 10.0 mi WSW 5.8 mph - N/A   Mostly Cloudy
12:54 PM 92.1 °F 95.7 °F 67.3 °F 44% 30.26 in 10.0 mi WSW 10.4 mph - N/A   Scattered Clouds
1:15 PM 92.3 °F 97.0 °F 68.5 °F 46% 30.26 in 10.0 mi WSW 5.8 mph 9.2 mph N/A   Scattered Clouds
1:34 PM 92.8 °F 97.1 °F 68.0 °F 44% 30.25 in 10.0 mi WSW 8.1 mph - N/A   Mostly Cloudy
1:55 PM 92.8 °F 96.6 °F 67.5 °F 43% 30.25 in 10.0 mi West 9.2 mph - N/A   Scattered Clouds
2:15 PM 92.1 °F 95.3 °F 66.6 °F 43% 30.25 in 10.0 mi SW 11.5 mph 16.1 mph N/A   Clear
2:34 PM 91.9 °F 95.0 °F 66.2 °F 43% 30.24 in 10.0 mi West 10.4 mph 16.1 mph N/A   Scattered Clouds
2:55 PM 92.3 °F 95.6 °F 66.6 °F 43% 30.24 in 10.0 mi West 10.4 mph - N/A   Scattered Clouds
3:14 PM 93.2 °F 96.7 °F 67.3 °F 42% 30.23 in 10.0 mi WSW 9.2 mph - N/A   Mostly Cloudy
3:35 PM 93.9 °F 96.5 °F 65.7 °F 39% 30.23 in 10.0 mi WSW 9.2 mph 16.1 mph N/A   Scattered Clouds
3:54 PM 92.5 °F 95.4 °F 66.0 °F 42% 30.23 in 10.0 mi SW 10.4 mph - N/A   Scattered Clouds
4:15 PM 93.0 °F 95.5 °F 65.5 °F 40% 30.22 in 10.0 mi SW 10.4 mph 17.3 mph N/A   Scattered Clouds
4:35 PM 92.1 °F 95.3 °F 66.6 °F 43% 30.22 in 10.0 mi SSW 9.2 mph - N/A   Clear
4:54 PM 92.1 °F 94.8 °F 65.7 °F 42% 30.21 in 10.0 mi West 13.8 mph - N/A   Clear
5:15 PM 89.8 °F 92.9 °F 67.1 °F 47% 30.22 in 10.0 mi WSW 8.1 mph - N/A   Mostly Cloudy
5:34 PM 89.4 °F 92.7 °F 67.5 °F 48% 30.22 in 10.0 mi SW 8.1 mph 17.3 mph N/A   Scattered Clouds
5:55 PM 89.8 °F 93.3 °F 67.5 °F 48% 30.20 in 10.0 mi SW 9.2 mph - N/A   Clear
6:14 PM 89.2 °F 92.8 °F 67.8 °F 49% 30.19 in 10.0 mi WSW 6.9 mph - N/A   Clear
6:35 PM 88.5 °F 91.9 °F 67.6 °F 50% 30.18 in 10.0 mi SW 10.4 mph 16.1 mph N/A   Clear
6:55 PM 88.2 °F 91.3 °F 67.6 °F 50% 30.19 in 10.0 mi SW 10.4 mph 17.3 mph N/A   Clear
7:14 PM 87.8 °F 91.1 °F 67.6 °F 51% 30.18 in 10.0 mi SW 9.2 mph 16.1 mph N/A   Clear
7:35 PM 87.4 °F 91.2 °F 68.2 °F 53% 30.18 in 10.0 mi SW 5.8 mph - N/A   Clear
7:54 PM 86.9 °F 90.3 °F 67.6 °F 53% 30.18 in 10.0 mi SW 5.8 mph - N/A   Clear
8:15 PM 84.9 °F 88.2 °F 68.0 °F 57% 30.18 in 10.0 mi SW 5.8 mph - N/A   Clear
8:35 PM 83.3 °F 87.4 °F 69.8 °F 64% 30.18 in 10.0 mi SSW 4.6 mph - N/A   Clear
8:54 PM 82.4 °F 86.3 °F 69.8 °F 66% 30.18 in 10.0 mi SSW 4.6 mph - N/A   Clear
9:15 PM 81.3 °F 85.0 °F 70.2 °F 69% 30.18 in 10.0 mi Calm Calm - N/A   Clear
9:34 PM 80.1 °F 83.6 °F 71.2 °F 74% 30.19 in 10.0 mi Calm Calm - N/A   Clear
9:55 PM 79.7 °F - 71.2 °F 75% 30.19 in 10.0 mi SW 3.5 mph - N/A   Clear
10:15 PM 78.4 °F - 71.6 °F 79% 30.19 in 10.0 mi Calm Calm - N/A   Clear
10:34 PM 77.7 °F - 71.4 °F 81% 30.19 in 10.0 mi Calm Calm - N/A   Clear
10:55 PM 76.6 °F - 71.8 °F 85% 30.19 in 10.0 mi Calm Calm - N/A   Clear
11:15 PM 75.9 °F - 71.6 °F 86% 30.18 in 10.0 mi Calm Calm - N/A   Clear
11:34 PM 75.2 °F - 72.1 °F 90% 30.18 in 10.0 mi Calm Calm - N/A   Clear
11:55 PM 75.0 °F - 72.1 °F 91% 30.18 in 10.0 mi South 3.5 mph - N/A   Clear